| time (UTC) | temp F | wind direction | speed MPH | gust MPH | rain 1hr in | rain 24hr in | rain mn in | humidity % | barometer mb |
| 20260506214217 | 52 | 270 | 1.0 | 2.0 | 0.00 | 0.07 | 0.07 | 82 | 1011.8 |
| 20260506213216 | 52 | 270 | 1.0 | 3.0 | 0.00 | 0.07 | 0.07 | 82 | 1011.8 |
| 20260506212213 | 52 | 270 | 2.0 | 4.0 | 0.00 | 0.07 | 0.07 | 81 | 1011.8 |
| 20260506211211 | 52 | 280 | 2.0 | 3.0 | 0.00 | 0.07 | 0.07 | 81 | 1011.7 |
| 20260506210209 | 52 | 270 | 1.0 | 2.0 | 0.00 | 0.07 | 0.07 | 80 | 1011.6 |
| 20260506205207 | 52 | 270 | 1.0 | 2.0 | 0.00 | 0.07 | 0.07 | 80 | 1011.6 |
| 20260506204205 | 52 | 270 | 2.0 | 4.0 | 0.00 | 0.07 | 0.07 | 80 | 1011.6 |
| 20260506203203 | 53 | 262 | 2.0 | 4.0 | 0.00 | 0.07 | 0.07 | 80 | 1011.6 |
| 20260506202221 | 53 | 270 | 2.0 | 4.0 | 0.00 | 0.07 | 0.07 | 79 | 1011.5 |
| 20260506201200 | 53 | 270 | 2.0 | 3.0 | 0.00 | 0.07 | 0.07 | 79 | 1011.4 |
| 20260506200157 | 53 | 270 | 2.0 | 3.0 | 0.00 | 0.07 | 0.07 | 78 | 1011.4 |
| 20260506195154 | 52 | 270 | 1.0 | 2.0 | 0.00 | 0.07 | 0.07 | 78 | 1011.3 |
| 20260506194153 | 53 | 290 | 1.0 | 2.0 | 0.00 | 0.07 | 0.07 | 78 | 1011.1 |
| 20260506193151 | 53 | 288 | 1.0 | 2.0 | 0.00 | 0.07 | 0.07 | 78 | 1010.9 |
| 20260506192149 | 53 | 270 | 1.0 | 3.0 | 0.00 | 0.07 | 0.07 | 77 | 1010.8 |
| 20260506191147 | 53 | 270 | 1.0 | 3.0 | 0.00 | 0.07 | 0.07 | 76 | 1010.8 |
| 20260506190145 | 54 | 270 | 1.0 | 3.0 | 0.00 | 0.07 | 0.07 | 76 | 1010.5 |
| 20260506185143 | 54 | 270 | 1.0 | 2.0 | 0.00 | 0.07 | 0.07 | 76 | 1010.5 |
| 20260506184141 | 54 | 270 | 1.0 | 3.0 | 0.00 | 0.07 | 0.07 | 76 | 1010.2 |
| 20260506183159 | 54 | 270 | 1.0 | 2.0 | 0.00 | 0.07 | 0.07 | 76 | 1010.1 |
| 20260506182138 | 54 | 270 | 2.0 | 3.0 | 0.00 | 0.07 | 0.07 | 76 | 1010.0 |
| 20260506181135 | 54 | 270 | 1.0 | 3.0 | 0.00 | 0.07 | 0.07 | 76 | 1010.0 |
| 20260506180133 | 54 | 270 | 2.0 | 3.0 | 0.00 | 0.07 | 0.07 | 75 | 1009.9 |
| 20260506175151 | 54 | 253 | 2.0 | 4.0 | 0.00 | 0.07 | 0.07 | 74 | 1009.8 |
| 20260506174128 | 55 | 247 | 3.0 | 6.0 | 0.00 | 0.07 | 0.07 | 73 | 1009.8 |
| 20260506173126 | 55 | 253 | 2.0 | 6.0 | 0.00 | 0.07 | 0.07 | 73 | 1009.7 |
| 20260506172124 | 56 | 240 | 2.0 | 5.0 | 0.00 | 0.07 | 0.07 | 73 | 1009.7 |
| 20260506171122 | 56 | 246 | 2.0 | 4.0 | 0.00 | 0.07 | 0.07 | 72 | 1009.5 |
| 20260506170121 | 56 | 239 | 2.0 | 3.0 | 0.00 | 0.07 | 0.07 | 71 | 1009.2 |
| 20260506165118 | 56 | 243 | 2.0 | 5.0 | 0.00 | 0.07 | 0.07 | 71 | 1009.1 |
| 20260506164117 | 56 | 270 | 2.0 | 4.0 | 0.00 | 0.07 | 0.07 | 73 | 1009.0 |
| 20260506163134 | 56 | 270 | 2.0 | 3.0 | 0.00 | 0.07 | 0.07 | 74 | 1009.0 |
| 20260506162112 | 55 | 270 | 2.0 | 5.0 | 0.00 | 0.07 | 0.07 | 75 | 1009.0 |
| 20260506161110 | 55 | 270 | 2.0 | 4.0 | 0.03 | 0.07 | 0.07 | 73 | 1008.9 |
| 20260506160108 | 55 | 135 | 2.0 | 4.0 | 0.06 | 0.07 | 0.07 | 71 | 1008.7 |
| 20260506155107 | 55 | 243 | 4.0 | 8.0 | 0.07 | 0.07 | 0.07 | 70 | 1009.0 |
| 20260506154104 | 55 | 270 | 3.0 | 6.0 | 0.07 | 0.07 | 0.07 | 69 | 1009.1 |
| 20260506153122 | 55 | 225 | 2.0 | 7.0 | 0.07 | 0.07 | 0.07 | 67 | 1009.2 |
| 20260506152100 | 55 | 137 | 2.0 | 6.0 | 0.07 | 0.07 | 0.07 | 64 | 1009.1 |
| 20260506151058 | 57 | 231 | 7.0 | 14.0 | 0.04 | 0.04 | 0.04 | 61 | 1009.0 |
| 20260506150056 | 59 | 227 | 7.0 | 17.0 | 0.01 | 0.01 | 0.01 | 56 | 1008.4 |
| 20260506145054 | 62 | 236 | 7.0 | 19.0 | 0.00 | 0.00 | 0.00 | 50 | 1007.3 |
| 20260506144052 | 63 | 227 | 6.0 | 12.0 | 0.00 | 0.00 | 0.00 | 51 | 1007.0 |
| 20260506143050 | 64 | 219 | 6.0 | 11.0 | 0.00 | 0.00 | 0.00 | 52 | 1006.6 |
| 20260506142048 | 64 | 209 | 4.0 | 11.0 | 0.00 | 0.00 | 0.00 | 59 | 1006.5 |
| 20260506141046 | 64 | 220 | 3.0 | 7.0 | 0.00 | 0.00 | 0.00 | 61 | 1006.2 |
| 20260506140044 | 64 | 228 | 4.0 | 9.0 | 0.00 | 0.00 | 0.00 | 62 | 1006.2 |
| 20260506135042 | 65 | 251 | 3.0 | 7.0 | 0.00 | 0.00 | 0.00 | 62 | 1006.5 |
| 20260506134041 | 65 | 281 | 3.0 | 6.0 | 0.00 | 0.00 | 0.00 | 59 | 1006.2 |
| 20260506133038 | 65 | 306 | 2.0 | 4.0 | 0.00 | 0.00 | 0.00 | 58 | 1006.1 |
| 20260506132036 | 65 | 52 | 2.0 | 5.0 | 0.00 | 0.00 | 0.00 | 60 | 1006.0 |
| 20260506131033 | 65 | 45 | 2.0 | 4.0 | 0.00 | 0.00 | 0.00 | 61 | 1006.0 |
| 20260506130054 | 65 | 73 | 2.0 | 6.0 | 0.00 | 0.00 | 0.00 | 63 | 1006.1 |
| 20260506125040 | 65 | 198 | 2.0 | 5.0 | 0.00 | 0.00 | 0.00 | 62 | 1006.1 |
| 20260506124028 | 64 | 217 | 2.0 | 6.0 | 0.00 | 0.00 | 0.00 | 64 | 1006.1 |
| 20260506123029 | 64 | 286 | 2.0 | 6.0 | 0.00 | 0.00 | 0.00 | 64 | 1006.0 |
| 20260506122024 | 63 | 236 | 2.0 | 6.0 | 0.00 | 0.00 | 0.00 | 67 | 1006.1 |
| 20260506121022 | 62 | 233 | 3.0 | 7.0 | 0.00 | 0.00 | 0.00 | 66 | 1006.2 |
| 20260506120020 | 62 | 233 | 3.0 | 6.0 | 0.00 | 0.00 | 0.00 | 66 | 1006.6 |
| 20260506115018 | 62 | 225 | 2.0 | 4.0 | 0.00 | 0.00 | 0.00 | 66 | 1006.6 |
| 20260506114017 | 61 | 219 | 2.0 | 6.0 | 0.00 | 0.00 | 0.00 | 66 | 1006.6 |
| 20260506112513 | 62 | 229 | 4.0 | 7.0 | 0.00 | 0.00 | 0.00 | 65 | 1006.2 |
| 20260506111511 | 62 | 230 | 3.0 | 7.0 | 0.00 | 0.00 | 0.00 | 67 | 1006.4 |
| 20260506110510 | 62 | 226 | 4.0 | 6.0 | 0.00 | 0.00 | 0.00 | 67 | 1006.0 |
| 20260506105507 | 62 | 231 | 3.0 | 6.0 | 0.00 | 0.00 | 0.00 | 67 | 1006.1 |
| 20260506104505 | 61 | 226 | 4.0 | 8.0 | 0.00 | 0.00 | 0.00 | 67 | 1006.2 |
| 20260506103504 | 62 | 233 | 4.0 | 7.0 | 0.00 | 0.00 | 0.00 | 67 | 1006.5 |
| 20260506102000 | 62 | 229 | 4.0 | 7.0 | 0.00 | 0.00 | 0.00 | 66 | 1006.7 |
| 20260506100959 | 62 | 229 | 4.0 | 6.0 | 0.00 | 0.00 | 0.00 | 65 | 1006.7 |
| 20260506095956 | 63 | 232 | 3.0 | 7.0 | 0.00 | 0.00 | 0.00 | 64 | 1006.8 |
| 20260506094954 | 63 | 270 | 2.0 | 4.0 | 0.00 | 0.00 | 0.00 | 66 | 1006.9 |
| 20260506093953 | 63 | 228 | 2.0 | 6.0 | 0.00 | 0.00 | 0.00 | 68 | 1006.9 |
| 20260506092950 | 62 | 235 | 2.0 | 6.0 | 0.00 | 0.00 | 0.00 | 69 | 1006.7 |
| 20260506091948 | 61 | 249 | 2.0 | 6.0 | 0.00 | 0.00 | 0.00 | 69 | 1006.8 |
| 20260506090946 | 60 | 234 | 2.0 | 4.0 | 0.00 | 0.00 | 0.00 | 71 | 1006.8 |
| 20260506085943 | 60 | 225 | 2.0 | 6.0 | 0.00 | 0.00 | 0.00 | 72 | 1006.9 |
| 20260506084941 | 59 | 206 | 1.0 | 3.0 | 0.00 | 0.00 | 0.00 | 73 | 1007.0 |
| 20260506083939 | 58 | 237 | 2.0 | 4.0 | 0.00 | 0.00 | 0.00 | 73 | 1007.0 |
| 20260506082938 | 58 | 235 | 3.0 | 6.0 | 0.00 | 0.00 | 0.00 | 74 | 1007.0 |
| 20260506081935 | 58 | 237 | 2.0 | 5.0 | 0.00 | 0.00 | 0.00 | 76 | 1007.1 |
| 20260506080933 | 57 | 241 | 3.0 | 7.0 | 0.00 | 0.00 | 0.00 | 76 | 1007.1 |
| 20260506072925 | 56 | 243 | 2.0 | 4.0 | 0.00 | 0.00 | 0.00 | 80 | 1007.0 |
| 20260506071925 | 55 | 255 | 2.0 | 4.0 | 0.00 | 0.00 | 0.00 | 81 | 1007.0 |
| 20260506070921 | 55 | 246 | 2.0 | 4.0 | 0.00 | 0.00 | 0.00 | 82 | 1007.0 |
| 20260506061912 | 55 | 247 | 2.0 | 4.0 | 0.00 | 0.00 | 0.00 | 79 | 1007.2 |
| 20260506060909 | 55 | 250 | 2.0 | 4.0 | 0.00 | 0.00 | 0.00 | 78 | 1007.2 |
| 20260506050857 | 51 | 255 | 2.0 | 4.0 | 0.00 | 0.00 | 0.00 | 80 | 1007.3 |
| 20260506044913 | 51 | 256 | 2.0 | 4.0 | 0.00 | 0.00 | 0.00 | 82 | 1007.5 |
| 20260506043911 | 51 | 260 | 2.0 | 4.0 | 0.00 | 0.00 | 0.00 | 80 | 1007.6 |
| 20260506042849 | 51 | 238 | 2.0 | 4.0 | 0.00 | 0.00 | 0.00 | 80 | 1007.7 |
| 20260506041908 | 51 | 234 | 1.0 | 3.0 | 0.00 | 0.00 | 0.00 | 79 | 1007.7 |
| 20260506040845 | 51 | 226 | 2.0 | 4.0 | 0.00 | 0.00 | 0.00 | 79 | 1007.8 |
| 20260506035844 | 51 | 230 | 2.0 | 4.0 | 0.00 | 0.00 | 0.00 | 80 | 1008.0 |
| 20260506034902 | 51 | 240 | 2.0 | 4.0 | 0.00 | 0.00 | 0.00 | 80 | 1008.1 |
| 20260506033919 | 51 | 229 | 2.0 | 4.0 | 0.00 | 0.00 | 0.00 | 79 | 1008.2 |
| 20260506032838 | 51 | 247 | 2.0 | 4.0 | 0.00 | 0.00 | 0.00 | 79 | 1008.3 |
| 20260506031835 | 51 | 242 | 2.0 | 5.0 | 0.00 | 0.00 | 0.00 | 79 | 1008.4 |
| 20260506030853 | 51 | 228 | 1.0 | 3.0 | 0.00 | 0.00 | 0.00 | 79 | 1008.4 |
| 20260506025831 | 51 | 252 | 2.0 | 5.0 | 0.00 | 0.00 | 0.00 | 79 | 1008.6 |
| 20260506024829 | 51 | 244 | 2.0 | 4.0 | 0.00 | 0.00 | 0.00 | 79 | 1008.7 |
| 20260506023827 | 51 | 252 | 2.0 | 4.0 | 0.00 | 0.00 | 0.00 | 78 | 1009.0 |
| 20260506022825 | 51 | 233 | 1.0 | 3.0 | 0.00 | 0.00 | 0.00 | 78 | 1009.2 |
| 20260506021843 | 51 | 230 | 1.0 | 3.0 | 0.00 | 0.00 | 0.00 | 78 | 1009.1 |
| 20260506020821 | 51 | 220 | 2.0 | 4.0 | 0.00 | 0.00 | 0.00 | 78 | 1009.3 |
| 20260506015819 | 52 | 246 | 2.0 | 5.0 | 0.00 | 0.00 | 0.00 | 78 | 1009.2 |
| 20260506014817 | 52 | 240 | 2.0 | 4.0 | 0.00 | 0.00 | 0.00 | 77 | 1009.2 |
| 20260506013816 | 52 | 227 | 1.0 | 3.0 | 0.00 | 0.00 | 0.00 | 77 | 1009.4 |
| 20260506012813 | 52 | 223 | 2.0 | 5.0 | 0.00 | 0.00 | 0.00 | 77 | 1009.4 |
| 20260506011811 | 52 | 235 | 2.0 | 4.0 | 0.00 | 0.00 | 0.00 | 76 | 1009.5 |
| 20260506010809 | 52 | 249 | 2.0 | 4.0 | 0.00 | 0.00 | 0.00 | 76 | 1009.5 |
| 20260506005807 | 52 | 244 | 2.0 | 4.0 | 0.00 | 0.00 | 0.00 | 76 | 1009.5 |
| 20260506004805 | 52 | 220 | 2.0 | 4.0 | 0.00 | 0.00 | 0.00 | 76 | 1009.4 |
| 20260506003803 | 52 | 231 | 2.0 | 4.0 | 0.00 | 0.00 | 0.00 | 76 | 1009.7 |
| 20260506002801 | 52 | 270 | 2.0 | 4.0 | 0.00 | 0.00 | 0.00 | 76 | 1009.9 |
| 20260506001759 | 52 | 248 | 2.0 | 4.0 | 0.00 | 0.00 | 0.00 | 75 | 1010.0 |
| 20260506000757 | 52 | 236 | 2.0 | 4.0 | 0.00 | 0.00 | 0.00 | 75 | 1010.1 |
| 20260505235755 | 52 | 240 | 2.0 | 4.0 | 0.00 | 0.00 | 0.00 | 75 | 1010.0 |
| 20260505234753 | 52 | 245 | 2.0 | 4.0 | 0.00 | 0.00 | 0.00 | 75 | 1009.9 |
| 20260505233811 | 52 | 241 | 2.0 | 3.0 | 0.00 | 0.00 | 0.00 | 74 | 1010.0 |
| 20260505232749 | 52 | 237 | 1.0 | 2.0 | 0.00 | 0.00 | 0.00 | 74 | 1010.1 |
| 20260505231747 | 53 | 225 | 2.0 | 4.0 | 0.00 | 0.00 | 0.00 | 73 | 1010.2 |
| 20260505230745 | 53 | 248 | 2.0 | 4.0 | 0.00 | 0.00 | 0.00 | 72 | 1010.1 |
| 20260505225743 | 53 | 215 | 1.0 | 4.0 | 0.00 | 0.00 | 0.00 | 71 | 1010.2 |
| 20260505224740 | 54 | 229 | 2.0 | 4.0 | 0.00 | 0.00 | 0.00 | 69 | 1010.2 |
| 20260505223740 | 55 | 221 | 2.0 | 4.0 | 0.00 | 0.00 | 0.00 | 69 | 1010.2 |
| 20260505222737 | 55 | 232 | 2.0 | 5.0 | 0.00 | 0.00 | 0.00 | 69 | 1010.2 |
| 20260505221756 | 55 | 245 | 2.0 | 4.0 | 0.00 | 0.00 | 0.00 | 69 | 1010.1 |
| 20260505220733 | 56 | 225 | 2.0 | 4.0 | 0.00 | 0.00 | 0.00 | 69 | 1010.2 |
| 20260505215731 | 56 | 226 | 2.0 | 5.0 | 0.00 | 0.00 | 0.00 | 69 | 1010.3 |
| 20260505214749 | 56 | 234 | 2.0 | 4.0 | 0.00 | 0.00 | 0.00 | 68 | 1010.4 |